Weather in Verkh-Ushnur

Russia / Mari El Republic     56°46′30″N   48°38′44″E
temp.,
°C
wind,
m/s
gust,
m/s
humid.,
%
clouds,
%
prec.,
mm/h
press.,
hPa
HPBL,
m
3 march, wed
wed300:00−6w3697100 0.1 998123
03:00−4wsw489794 0.3 999281
06:00−4wnw61096100 0.8 999550
09:00−5nw61195100 1.4 1000661
12:00−5nw71190100 0.5 1001673
15:00−5nw71089100 0.6 1003780
18:00−6wnw61091100 0.2 1003723
21:00−7wnw61090100 0.3 1004718
4 march, thu
thu400:00−8sw4996100 0.1 1001215
03:00−6wsw51296100 0.9 999459
06:00−5wsw51195100 0.4 997528
09:00−4sw61195100 0.9 995700
12:00−1wsw81294100 0.9 9921006
15:00−1w71279100 2.3 9911233
18:00−4w7149065 0.1 993684
21:00−6wnw6119578 0.2 996353
5 march, fri
fri500:00−9wnw3698100 0.1 998124
03:00−12nw239797 0.1 100035
06:00−15nw239886 0.0 100120
09:00−13nnw359566 0.1 1002166
12:00−11nnw3588100 0.0 1003348
15:00−11nw478867 0.0 1005502
18:00−14nw349791 0.0 100765
21:00−16wnw339791 0.1 101038
6 march, sat
sat600:00−18w33983 0.0 101124
03:00−17wsw349939 0.1 101256
06:00−17sw3410097 0.0 101175
09:00−14sw479694 0.1 1011240
12:00−10wsw4692100 0.2 1011485
15:00−9wnw4690100 0.4 1010644
18:00−16nw349582 0.1 101040
21:00−19wnw339542 0.1 101122
7 march, sun
sun700:00−19wsw349923 0.0 101141
03:00−18sw369957 0.1 101197
06:00−18sw36100100 0.1 1010131
09:00−14ssw4996100 0.1 1009270
12:00−10ssw71187100 0.0 1006645
15:00−10s81291100 0.1 1004772
18:00−9s81493100 0.4 1001882
21:00−7s81593100 1.6 9961022